Zurück zum Katalog

STARLINK-4655

AktivKommunikationVLEO
NORAD 53613·PAYLOAD·🇺🇸 United States

Gestartet Aug 28, 2022 von Cape Canaveral Space Force Station

Loading…

Nächste Überflüge (nächste 24 Stunden)

TLE

AktuellSource: CelesTrak SupGP

Epoche: Sep 14, 2026, 14:55 UTC

1 53613C 22104AB  26257.62201389 -.00022046  00000+0 -63075-3 0  2576
2 53613  53.1582  95.4606 0001453 100.2899  69.5803 15.35409747    13

Verfolge STARLINK-4655 in Echtzeit mit AllMySat

Download on the App Store